FW3241 Weather Reports


time (UTC)temp
F
wind
direction
speed
knots
gust
knots
rain 1hr
in
rain 24hr
in
rain mn
in
humidity
%
barometer
mb
20260902114539 68 164 0.0 0.0 0.00 0.00 0.00 74 1021.1
20260902113028 68 164 0.0 0.0 0.00 0.00 0.00 74 1021.1
20260902111531 68 164 0.0 0.0 0.00 0.00 0.00 75 1020.9
20260902110027 68 164 0.0 0.0 0.00 0.00 0.00 74 1020.8
20260902104526 68 164 0.0 0.0 0.00 0.00 0.00 74 1020.8
20260902103029 68 164 0.0 0.0 0.00 0.00 0.00 75 1021.0
20260902101527 68 164 0.0 0.0 0.00 0.00 0.00 75 1020.8
20260902100023 67 164 0.0 0.0 0.00 0.00 0.00 75 1020.7
20260902094522 67 164 0.0 0.0 0.00 0.00 0.00 75 1020.5
20260902093022 67 164 0.0 0.0 0.00 0.00 0.00 75 1020.4
20260902091521 68 164 0.0 0.0 0.00 0.00 0.00 75 1020.2
20260902090030 68 164 0.0 0.0 0.00 0.00 0.00 75 1020.1
20260902084519 68 164 0.0 0.0 0.00 0.00 0.00 75 1020.1
20260902083020 68 164 0.0 0.0 0.00 0.00 0.00 75 1020.1
20260902081519 68 164 0.0 0.0 0.00 0.00 0.00 75 1020.1
20260902080017 68 164 0.0 0.0 0.00 0.00 0.00 74 1020.1
20260902074516 69 164 0.0 0.0 0.00 0.00 0.00 74 1020.0
20260902073014 69 164 0.0 0.0 0.00 0.00 0.00 73 1020.1
20260902071513 69 164 0.0 0.0 0.00 0.00 0.00 72 1020.1
20260902070012 69 164 0.0 0.0 0.00 0.00 0.00 72 1020.1
20260902064518 69 164 0.0 0.0 0.00 0.00 0.00 73 1020.2
20260902063011 69 164 0.0 0.0 0.00 0.00 0.00 73 1020.4
20260902061510 69 164 0.0 0.0 0.00 0.00 0.00 73 1020.4
20260902060009 69 164 0.0 0.0 0.00 0.00 0.00 72 1020.5
20260902054511 69 164 0.0 0.0 0.00 0.00 0.00 72 1020.8
20260902053008 69 164 0.0 0.0 0.00 0.00 0.00 72 1020.7
20260902051507 69 164 0.0 0.0 0.00 0.00 0.00 72 1020.6
20260902050008 70 164 0.0 0.0 0.00 0.00 0.00 72 1020.6
20260902044508 70 164 0.0 0.0 0.00 0.00 0.00 71 1020.4
20260902043006 70 164 0.0 0.0 0.00 0.00 0.00 71 1020.4
20260902041515 70 164 0.0 0.0 0.00 0.00 0.00 71 1020.3
20260902040000 70 164 0.0 0.0 0.00 0.00 0.00 71 1020.2
20260902034606 70 164 0.0 0.0 0.00 0.00 0.00 71 1020.2
20260902033100 70 164 0.0 0.0 0.00 0.00 0.00 71 1020.3
20260902031559 70 164 0.0 0.0 0.00 0.00 0.00 71 1020.3
20260902030101 70 164 0.0 0.0 0.00 0.00 0.00 71 1020.4
20260902024559 70 164 0.0 0.0 0.00 0.00 0.00 71 1020.5
20260902023059 70 164 0.0 0.0 0.00 0.00 0.00 71 1020.5
20260902021619 70 164 0.0 0.0 0.00 0.00 0.00 71 1020.5
20260902020058 70 164 0.0 0.0 0.00 0.00 0.00 72 1020.5
20260902014558 70 164 0.0 0.0 0.00 0.00 0.00 72 1020.4
20260902013056 70 164 0.0 0.0 0.00 0.00 0.00 72 1020.4
20260902011557 70 164 0.0 0.0 0.00 0.00 0.00 72 1020.3
20260902010055 70 164 0.0 0.0 0.00 0.00 0.00 72 1020.1
20260902004555 71 164 0.0 0.9 0.00 0.00 0.00 72 1020.0
20260902003055 71 164 0.0 0.0 0.00 0.00 0.00 72 1020.0
20260902001555 72 164 0.0 0.0 0.00 0.00 0.00 71 1020.1
20260902000100 72 164 0.0 0.0 0.00 0.00 0.00 70 1020.0
20260901234553 73 164 0.0 0.0 0.00 0.00 0.00 70 1020.0
20260901233105 73 164 0.0 0.0 0.00 0.00 0.00 68 1020.1
20260901231552 74 164 0.0 0.0 0.00 0.00 0.00 68 1020.0
20260901230056 74 164 0.0 0.0 0.00 0.00 0.00 68 1020.2
20260901224551 75 164 0.0 0.0 0.00 0.00 0.00 68 1019.9
20260901223106 75 164 0.0 0.9 0.00 0.00 0.00 67 1019.9
20260901221552 76 164 0.0 1.7 0.00 0.00 0.00 66 1019.9
20260901220051 76 164 0.9 1.7 0.00 0.00 0.00 65 1019.9
20260901214555 76 164 0.0 1.7 0.00 0.00 0.00 65 1020.0
20260901213047 76 164 0.0 0.0 0.00 0.00 0.00 63 1020.0
20260901211547 76 164 0.0 1.7 0.00 0.00 0.00 64 1020.0
20260901210100 76 164 0.0 1.7 0.00 0.00 0.00 64 1020.1
20260901204548 76 164 0.0 0.9 0.00 0.00 0.00 65 1020.1
20260901203105 76 164 0.0 1.7 0.00 0.00 0.00 65 1020.2
20260901201549 76 164 0.0 0.0 0.00 0.00 0.00 65 1020.4
20260901200054 76 164 0.0 0.9 0.00 0.00 0.00 66 1020.4
20260901194545 76 164 0.0 0.9 0.00 0.00 0.00 64 1020.4
20260901193043 76 164 0.0 1.7 0.00 0.00 0.00 65 1020.6
20260901191540 76 164 0.0 1.7 0.00 0.00 0.00 65 1020.8
20260901190058 76 164 0.0 0.9 0.00 0.00 0.00 65 1020.9
20260901184544 77 158 0.0 1.7 0.00 0.00 0.00 65 1021.1
20260901183040 77 158 0.0 0.9 0.00 0.00 0.00 63 1021.1
20260901181539 78 158 0.0 0.0 0.00 0.00 0.00 62 1021.3
20260901180037 79 158 0.0 0.0 0.00 0.00 0.00 61 1021.3
20260901174538 79 158 0.0 0.9 0.00 0.00 0.00 61 1021.3
20260901173031 77 158 0.0 0.9 0.00 0.00 0.00 63 1021.3
20260901171528 75 158 0.0 0.9 0.00 0.00 0.00 64 1021.6
20260901170023 74 158 0.0 1.7 0.00 0.00 0.00 69 1021.7
20260901164520 73 158 0.9 1.7 0.00 0.00 0.00 71 1021.8
20260901163025 72 158 0.0 1.7 0.00 0.00 0.00 71 1022.1
20260901161518 72 158 0.0 1.7 0.00 0.00 0.00 73 1022.1
20260901160016 72 158 0.0 1.7 0.00 0.00 0.00 72 1022.3
20260901154523 71 158 0.0 0.9 0.00 0.00 0.00 74 1022.4
20260901153022 71 158 0.0 0.9 0.00 0.00 0.00 73 1022.5
20260901151515 70 158 0.0 0.9 0.00 0.00 0.00 73 1022.4
20260901150025 70 158 0.0 0.0 0.00 0.00 0.00 73 1022.4
20260901144510 70 158 0.0 0.9 0.00 0.00 0.00 72 1022.3
20260901143007 70 158 0.0 0.0 0.00 0.00 0.00 73 1022.3
20260901141507 69 158 0.0 0.9 0.00 0.00 0.00 70 1022.2
20260901140003 69 158 0.0 0.0 0.00 0.00 0.00 71 1022.1
20260901134503 68 158 0.0 0.0 0.00 0.00 0.00 74 1022.1
20260901133108 68 158 0.0 0.0 0.00 0.00 0.00 73 1022.0
20260901131603 68 158 0.0 0.0 0.00 0.00 0.00 75 1022.0
20260901130059 67 158 0.0 0.0 0.00 0.00 0.00 76 1022.0
20260901124559 67 158 0.0 0.0 0.00 0.00 0.00 76 1022.0
20260901123058 67 158 0.0 0.0 0.00 0.00 0.00 77 1022.0
20260901121558 66 158 0.0 0.0 0.00 0.00 0.00 77 1022.0
20260901120118 66 158 0.0 0.0 0.00 0.00 0.00 77 1021.9